Location: Dana
(41.8364°N, 106.7042°W)
Time: 20:10:33
(UTC+00:00)

Tiros 1 despin weight - Pass Details

Date: 19 May 2026
Orbit: 555 x 591 km, 48.2° (Epoch: 1 June)

Event Time Altitude Azimuth Distance (km) Brightness Sun altitude
Rises 13:48:15 0° 289° (WNW) 2,752 ? 21.3°
Reaches altitude 10° 13:50:41 10° 299° (WNW) 1,850 ? 21.7°
Maximum altitude 13:54:34 35° 6° (N) 913 ? 22.4°
Drops below altitude 10° 13:58:26 10° 73° (ENE) 1,836 ? 23.2°
Sets 14:00:49 0° 82° (E) 2,728 ? 23.6°
